Regional Weather Roundup
Issued by NWS Charleston, WV

Home | Current Version | Previous Version | Graphics & Text | Print | Product List | Glossary On
Versions: 1 2 3 4 5 6 7 8 9 10 11 12 13 14 15 16 17 18 19 20 21 22 23 24 25 26 27
000
ASUS41 KRLX 180510
RWRRLX
West Virginia Regional Weather Roundup
National Weather Service Charleston WV
1200 AM EST THU JAN 18 2018

Note: "fair" indicates few or no clouds below 12,000 feet with no
significant weather and/or obstructions to visibility.

WVZ003-180600-
Northern Panhandle of West Virginia

CITY           SKY/WX    TMP DP  RH WIND       PRES   REMARKS
WHEELING         N/A      7   2  80 SW9       30.32F WCI  -7
$$

WVZ009-180600-
Northwest West Virginia

CITY           SKY/WX    TMP DP  RH WIND       PRES   REMARKS
PARKERSBURG      N/A      7   2  80 S7        30.44F WCI  -5
$$

WVZ006-180600-
Western West Virginia

CITY           SKY/WX    TMP DP  RH WIND       PRES   REMARKS
HUNTINGTON       N/A      6   2  83 SW5       30.46F WCI  -3
$$

WVZ015-180600-
West Central West Virginia

CITY           SKY/WX    TMP DP  RH WIND       PRES   REMARKS
CHARLESTON     MOCLDY     9   3  77 SW6       30.44F WCI  -1
$$

WVZ022-031-180600-
North Central West Virginia

CITY           SKY/WX    TMP DP  RH WIND       PRES   REMARKS
CLARKSBURG     CLOUDY    10   4  76 S8        30.39F WCI  -2
MORGANTOWN     CLOUDY     9   3  77 S8        30.37F WCI  -3
$$

WVZ025-035-042-045-180600-
Southern West Virginia

CITY           SKY/WX    TMP DP  RH WIND       PRES   REMARKS
BECKLEY        CLOUDY     6   3  87 W6        30.29F WCI  -4
LOGAN          MOCLDY     9   5  85 CALM      30.40S
BLUEFIELD      LGT SNOW   5   1  83 W9        30.27F FOG     WCI  -9
LEWISBURG      LGT SNOW   7   2  82 W8        30.28F WCI  -6
$$

WVZ047-180600-
Northern Mountains of West Virginia

CITY           SKY/WX    TMP DP  RH WIND       PRES   REMARKS
ELKINS         CLOUDY     8   2  76 SW3       30.32F
$$

WVZ052-180600-
Eastern Panhandle of West Virginia

CITY           SKY/WX    TMP DP  RH WIND       PRES   REMARKS
MARTINSBURG      N/A     16   5  62 W6        30.29F WCI   7
PETERSBURG       N/A      6   1  81 CALM      30.32F
$$




USA.gov is the U.S. government's official web portal to all federal, state and local government web resources and services.